Location: A O Calhoun Middle School
(33.2198°N, 97.1397°W)
Time: 06:19:45
(UTC+00:00)

DELTA 2 R/B (1) - Pass Details

Date: 04 July 2022
Orbit: 790 x 803 km, 39.6° (Epoch: 09 August)

Event Time Altitude Azimuth Distance (km) Brightness Sun altitude
Rises 03:32:53 0° 285° (WNW) 3,292 7.8 -19.4°
Reaches altitude 10° 03:35:44 10° 272° (W) 2,362 6.6 -19.8°
Maximum altitude 03:40:14 25° 218° (SW) 1,542 5.0 -20.4°
Enters shadow 03:41:44 23° 194° (SSW) 1,652 4.9 -20.6°
